Regional Weather Roundup
Issued by NWS

Home | Current Version | Previous Version | Graphics & Text | Print | Product List | Glossary On
Versions: 1 2 3 4 5 6 7 8 9 10 11 12 13 14 15 16 17 18 19 20 21 22 23 24 25 26 27 28 29 30 31 32 33 34 35 36 37 38 39 40 41 42 43 44 45 46 47 48 49 50
347
ASUS45 KCYS 301910
RWRWY

WYOMING REGIONAL WEATHER ROUNDUP
NATIONAL WEATHER SERVICE CHEYENNE WY
100 PM MDT SUN APR 30 2017

NOTE:  "FAIR" INDICATES FEW OR NO CLOUDS BELOW 12,000 FEET
WITH NO SIGNIFICANT WEATHER AND/OR OBSTRUCTIONS TO VISIBILITY.

WYZ001-302000-
YELLOWSTONE NATIONAL PARK

CITY           SKY/WX    TMP DP  RH WIND       PRES   REMARKS
LK YELLOWSTONE   N/A     37  26  64 VRB5      30.11F WCI  33
W YELLOWSTONE  NOT AVBL

$$
WYZ002>013-054>058-071-098>099-302000-
NORTHERN WYOMING

CITY           SKY/WX    TMP DP  RH WIND       PRES   REMARKS
JACKSON        PTSUNNY   46  25  42 SW16      30.09F
CODY           FAIR      55  28  35 W5        29.98F
GREYBULL       FAIR      57  22  25 CALM      29.96F
WORLAND        FAIR      56  27  32 CALM      29.97F
SHERIDAN       FAIR      55  27  34 VRB5      29.94F
BUFFALO        FAIR      54  20  26 CALM      29.97S
GILLETTE       FAIR      48  28  46 SW5       29.96F
HULETT         FAIR      54  18  24 SW3       29.96F
NEWCASTLE      FAIR      52  19  28 NW6       29.95F

$$
WYZ014>020-022>026-101>103-302000-
CENTRAL WYOMING

CITY           SKY/WX    TMP DP  RH WIND       PRES   REMARKS
BIG PINEY      FAIR      50  22  33 NW16G25   30.08F
PINEDALE       FAIR      46  21  36 NW24G32   30.08F
DUBOIS         FAIR      48  19  32 NW25G35   30.01F
LANDER         FAIR      48  27  44 S9        29.99F
RIVERTON       FAIR      50  25  37 S13       30.01F
CASPER         FAIR      54  22  28 NW9G17    29.98F
DOUGLAS        FAIR      57  23  26 NW12G21   29.95F

$$
WYZ021-027>030-104>119-302000-
SOUTHERN WYOMING

CITY           SKY/WX    TMP DP  RH WIND       PRES   REMARKS
EVANSTON       CLOUDY    46  27  47 W14       30.15F
KEMMERER         N/A     45  30  57 W24G31    30.12F
FORT BRIDGER   CLOUDY    49  29  46 W20G26    30.15F
ROCK SPRINGS   FAIR      51  23  33 W17G26    30.08F
DIXON            N/A     48  22  35 SW8       30.10F
RAWLINS        FAIR      48  23  37 W14G23    30.05F
SARATOGA       FAIR      48  14  25 NW10G20   30.05F
LARAMIE        FAIR      48  12  23 NW25G35   29.97F
CHEYENNE       FAIR      49  16  26 NW24G44   29.91F
TORRINGTON     FAIR      54  17  23 N16G26    29.91F
PINE BLUFFS    FAIR      50  19  29 N20G30    29.91F

$$




USA.gov is the U.S. government's official web portal to all federal, state and local government web resources and services.